[[{"header":{"parameterUnit":"m.s-1","parameterCategory":1,"la1":30.2991,"la2":30.254,"lo1":-89.0895,"lo2":-89.0444,"dy":0.0017,"dx":0.0017,"nx":28,"ny":28,"refTime":"2025-05-15T21:00:00:Z","depth":0,"parameterNumber":2,"parameterNumberName":"U-component_of_WINDS"},"data":[0,0,0,0,0,0,0,0,0,0,0,0,0,0,0,0,0,0,0,0,0,0,0,0,0,0,0,0,0,0,0,0,0,0,0,0,0,0,0,0,0,0,0,0,0,0,0,0,0,0,0,0,0,0,0,0,0,0,1.286,1.286,0,1.2855,1.2855,1.2855,1.2815,1.2814,1.2813,1.2812,1.2809,1.281,1.281,0,0,0,0,0,0,0,0,0,0,0,0,0,1.2834,1.2835,1.286,1.286,1.286,1.2855,1.2855,1.2855,1.2815,1.2814,1.2813,1.2811,1.2808,1.2809,1.281,0,0,0,0,0,0,0,0,0,0,0,0,0,1.2839,1.2835,1.286,1.2839,1.2837,1.2855,1.2855,1.2855,1.2815,1.2814,1.2812,1.2811,1.2808,1.2809,1.2811,1.2849,0,0,1.2815,1.2815,0,0,0,0,0,0,0,0,1.2839,1.284,1.2842,1.284,1.2838,1.2834,1.2845,1.2853,1.2816,1.2824,1.2812,1.281,1.2818,1.2819,1.2821,1.2849,1.2848,1.2815,1.2815,1.2816,1.2816,0,0,0,0,0,0,0,1.2839,1.284,1.2858,1.2842,1.284,1.283,1.2829,1.2846,1.283,1.2823,1.282,1.282,1.2817,1.282,1.2821,1.2848,1.2815,1.2816,1.2817,1.2817,1.2906,1.2907,0,0,0,0,0,0,1.2841,1.284,1.2858,1.2858,1.2835,1.2832,1.2831,1.2837,1.2829,1.2827,1.2821,1.2818,1.2819,1.2819,1.2821,1.2864,1.2816,1.2817,1.2818,1.2904,1.2906,1.2908,0,0,0,0,0,0,1.2841,1.2843,1.2858,1.2848,1.2849,1.2834,1.2841,1.2838,1.2841,1.2828,1.2825,1.2827,1.2818,1.2819,1.2842,1.2863,1.2818,1.2819,1.2902,1.2905,1.2907,1.2951,0,0,0,0,0,0,1.284,1.2843,1.2857,1.2849,1.285,1.2879,1.2843,1.2839,1.2843,1.2839,1.2833,1.283,1.2816,1.284,1.2843,1.2864,1.282,1.29,1.2903,1.2906,1.2947,1.2954,1.296,0,0,0,0,0,1.2839,1.287,1.2858,1.2861,1.2867,1.2881,1.2881,1.2864,1.2845,1.2859,1.2851,1.2831,1.2861,1.2843,1.2846,1.2867,1.2899,1.2902,1.2906,1.2944,1.2953,1.296,0,0,0,0,0,0,1.2882,1.2869,1.2855,1.2884,1.2884,1.2874,1.2891,1.2874,1.2879,1.2875,1.2854,1.2853,1.2879,1.2876,1.2856,1.2903,1.2876,1.288,1.2904,1.2912,1.2919,1.2919,1.2821,0,0,0,0,0,1.2895,1.2907,1.2895,1.2922,1.2922,1.2907,1.2912,1.2899,1.2897,1.2897,1.289,1.289,1.2899,1.2906,1.2914,1.2947,1.2945,1.2963,1.297,1.2975,1.2979,1.2995,1.3003,1.2919,1.2919,1.2919,0,0,1.2922,1.2916,1.2925,1.293,1.2928,1.294,1.2907,1.2922,1.293,1.2899,1.292,1.2915,1.2914,1.2942,1.2954,1.294,1.3002,1.298,1.2984,1.2985,1.3,1.3008,1.3015,1.2922,1.2921,1.2921,0,0,1.2977,1.2974,1.2995,1.2994,1.2991,1.298,1.2986,1.2978,1.2973,1.2994,1.297,1.2981,1.2998,1.2997,1.2999,1.3053,1.3035,1.3057,1.309,1.3106,1.3113,1.3119,1.3137,1.3144,1.3061,1.3061,1.3061,0,1.301,1.3028,1.3009,1.3024,1.3027,1.2999,1.3021,1.302,1.3021,1.3023,1.3008,1.3027,1.3024,1.3051,1.3064,1.3067,1.3072,1.3057,1.3113,1.3119,1.3124,1.3141,1.3148,1.3063,1.3063,1.3063,1.3062,0,1.3068,1.3081,1.3099,1.3098,1.3103,1.3122,1.3106,1.3113,1.31,1.3091,1.3112,1.3108,1.3113,1.3119,1.3107,1.3144,1.3135,1.3117,1.3089,1.3135,1.315,1.3157,1.3067,1.3066,1.3065,1.3065,0,0,1.315,1.3138,1.3145,1.3144,1.3139,1.3148,1.3166,1.3171,1.3177,1.3178,1.3192,1.3207,1.3189,1.3192,1.3179,1.3193,1.3235,1.3173,1.3172,1.3183,1.3275,1.3287,1.3295,1.3223,1.3224,1.3225,1.3274,0,1.3201,1.3229,1.3212,1.3243,1.3254,1.3228,1.3243,1.3241,1.3234,1.3242,1.3234,1.3244,1.3221,1.3222,1.3235,1.3227,1.3253,1.3223,1.3235,1.3236,1.3235,1.3304,1.3317,1.3364,1.328,1.3281,1.3282,0,1.3264,1.3267,1.3299,1.3291,1.3295,1.3308,1.3311,1.332,1.3317,1.3311,1.3313,1.3297,1.3313,1.3287,1.3309,1.3289,1.3293,1.329,1.3291,1.3291,1.3261,1.3304,1.3378,1.3385,1.3292,1.3291,1.329,0,1.3318,1.3331,1.3351,1.3351,1.3342,1.3352,1.3349,1.3346,1.335,1.3353,1.3355,1.336,1.3363,1.3368,1.3353,1.3335,1.3377,1.3349,1.3371,1.3372,1.338,1.338,1.3455,1.3385,1.3385,1.3385,1.3385,0,1.3377,1.3397,1.3375,1.3387,1.3408,1.339,1.3412,1.3406,1.3403,1.3413,1.3392,1.3402,1.3383,1.3392,1.3381,1.34,1.3402,1.3397,1.3393,1.3398,1.3398,1.3399,1.3395,1.3387,1.3386,1.3386,1.3386,0,1.344,1.3426,1.3446,1.3436,1.3434,1.345,1.3442,1.3453,1.3444,1.3458,1.346,1.3446,1.3455,1.3441,1.3449,1.3442,1.3468,1.3461,1.3469,1.3466,1.3488,1.3486,1.3566,1.3575,1.3501,1.3502,1.3502,0,1.3477,1.3492,1.3483,1.3488,1.3486,1.3496,1.3499,1.3481,1.3486,1.3484,1.3496,1.3503,1.3507,1.3523,1.3514,1.352,1.3511,1.3539,1.3512,1.3516,1.351,1.3509,1.351,1.3544,1.3545,1.3546,1.3547,0,1.3544,1.3537,1.3542,1.3546,1.3551,1.3553,1.3553,1.3559,1.354,1.3547,1.3555,1.3559,1.3567,1.3574,1.3577,1.3574,1.3557,1.3555,1.356,1.3565,1.3568,1.3565,1.3482,1.3553,1.3553,1.3552,1.3552,1.3551,1.3595,1.3606,1.3601,1.3608,1.3607,1.3608,1.3617,1.3609,1.3616,1.362,1.361,1.3621,1.3618,1.362,1.362,1.3628,1.3616,1.3624,1.3626,1.3627,1.363,1.3568,1.3629,1.3629,1.3629,1.3628,1.3628,0,1.3659,1.3655,1.3662,1.3662,1.3668,1.3651,1.3651,1.3657,1.3667,1.3665,1.367,1.368,1.3687,1.3678,1.3684,1.3692,1.3684,1.3694,1.3692,1.3692,1.3642,1.3636,1.37,1.37,1.37,1.37,1.37,1.37,1.3693,1.3711,1.3703,1.372,1.3715,1.3725,1.3726,1.3727,1.3726,1.3737,1.3743,1.3737,1.3733,1.3738,1.3743,1.374,1.3743,1.3755,1.375,1.3703,1.3695,1.3689,1.3683,1.3756,1.3756,1.3799,1.3799,1.3799]},{"header":{"parameterUnit":"m.s-1","parameterCategory":1,"la1":30.2991,"la2":30.254,"lo1":-89.0895,"lo2":-89.0444,"dy":0.0017,"dx":0.0017,"nx":28,"ny":28,"refTime":"2025-05-15T21:00:00:Z","depth":0,"parameterNumber":3,"parameterNumberName":"V-component_of_WINDS"},"data":[0,0,0,0,0,0,0,0,0,0,0,0,0,0,0,0,0,0,0,0,0,0,0,0,0,0,0,0,0,0,0,0,0,0,0,0,0,0,0,0,0,0,0,0,0,0,0,0,0,0,0,0,0,0,0,0,0,0,4.9467,4.9468,0,4.957,4.9572,4.9573,4.9552,4.955,4.9548,4.9547,4.9647,4.9652,4.9656,0,0,0,0,0,0,0,0,0,0,0,0,0,4.9245,4.9249,4.9466,4.9468,4.9469,4.957,4.9572,4.9573,4.9552,4.955,4.9548,4.9546,4.9646,4.9651,4.9656,0,0,0,0,0,0,0,0,0,0,0,0,0,4.9344,4.9251,4.9466,4.9471,4.9473,4.957,4.9572,4.9573,4.9553,4.955,4.9547,4.9545,4.9644,4.9651,4.9657,4.9754,0,0,4.9677,4.968,0,0,0,0,0,0,0,0,4.9339,4.9352,4.9469,4.9471,4.9473,4.9546,4.953,4.9634,4.9554,4.9522,4.9547,4.9543,4.9615,4.9624,4.965,4.9759,4.9763,4.9678,4.9682,4.9685,4.9687,0,0,0,0,0,0,0,4.9332,4.9348,4.9507,4.9471,4.9473,4.9466,4.9477,4.955,4.9583,4.9525,4.9524,4.9536,4.9616,4.9643,4.9652,4.9765,4.9678,4.9684,4.9688,4.969,4.9959,4.9962,0,0,0,0,0,0,4.9324,4.9342,4.9504,4.951,4.9398,4.9473,4.9485,4.9525,4.9582,4.9588,4.9539,4.9535,4.9633,4.9644,4.9655,4.9773,4.9685,4.9691,4.9695,4.9956,4.996,4.9963,0,0,0,0,0,0,4.9319,4.9339,4.95,4.9426,4.9446,4.948,4.9525,4.9528,4.9556,4.9593,4.9598,4.9561,4.9632,4.9646,4.973,4.9777,4.9694,4.97,4.9952,4.9957,4.9961,5.001,0,0,0,0,0,0,4.9313,4.9337,4.9376,4.9427,4.945,4.9575,4.9527,4.9533,4.9568,4.9564,4.9615,4.9621,4.963,4.9721,4.9737,4.9784,4.9705,4.9948,4.9954,4.996,5.0004,5.0016,5.0026,0,0,0,0,0,4.9305,4.9384,4.9378,4.9397,4.9499,4.9578,4.9591,4.9602,4.9572,4.961,4.9634,4.9619,4.9769,4.9729,4.9748,4.9798,4.9945,4.9953,4.996,5.0,5.0014,5.0025,0,0,0,0,0,0,4.9335,4.9391,4.9385,4.9482,4.9526,4.9574,4.9623,4.9616,4.9667,4.9661,4.967,4.9682,4.9768,4.9791,4.9746,4.9895,4.9853,4.9864,4.9877,4.989,4.9901,4.9894,4.9711,0,0,0,0,0,4.9353,4.9414,4.9458,4.954,4.9563,4.9589,4.9623,4.9628,4.9673,4.969,4.972,4.9762,4.9819,4.9856,4.9909,5.0007,5.0018,5.0051,5.0061,5.007,5.0079,5.0133,5.0148,4.9987,4.9986,4.9986,0,0,4.939,4.9428,4.9466,4.9547,4.9581,4.9643,4.9604,4.967,4.9716,4.97,4.9782,4.9805,4.9853,4.9945,4.9986,4.9966,5.0126,5.0079,5.0085,5.009,5.0142,5.0157,5.0171,4.9991,4.999,4.999,0,0,4.949,4.9525,4.9598,4.9633,4.9686,4.9704,4.9721,4.9771,4.9787,4.987,4.9859,4.9912,5.0009,5.0043,5.0074,5.0188,5.0176,5.0204,5.026,5.0312,5.0325,5.0336,5.0377,5.0392,5.0214,5.0214,5.0214,0,4.953,4.9624,4.9635,4.9704,4.974,4.973,4.9803,4.9836,4.9903,4.9927,4.9904,5.0026,5.0057,5.0158,5.0186,5.021,5.023,5.0199,5.0322,5.0334,5.0345,5.0384,5.0399,5.0217,5.0217,5.0216,5.0216,0,4.967,4.9735,4.9787,4.9855,4.9896,4.9966,4.9987,5.0027,5.0028,5.0048,5.0132,5.0169,5.0231,5.0255,5.0256,5.0355,5.0341,5.032,5.0278,5.0363,5.04,5.0415,5.0222,5.022,5.022,5.0219,0,0,4.9791,4.9865,4.9884,4.9915,4.9973,5.0023,5.0092,5.0154,5.0189,5.0235,5.0293,5.0375,5.0357,5.0391,5.0396,5.0441,5.053,5.0415,5.0416,5.0436,5.0642,5.0658,5.0676,5.0523,5.0525,5.0528,5.0639,0,4.9897,5.0022,5.0034,5.0145,5.0205,5.0197,5.0257,5.0298,5.0318,5.037,5.0391,5.045,5.0421,5.0441,5.0486,5.051,5.0572,5.0502,5.0576,5.0578,5.0565,5.0695,5.0712,5.0815,5.0653,5.0655,5.0657,0,5.0037,5.009,5.0208,5.0258,5.0284,5.0338,5.0397,5.0447,5.0493,5.0504,5.0543,5.0542,5.0612,5.0567,5.0663,5.0615,5.0646,5.0662,5.0666,5.0674,5.0623,5.0707,5.0848,5.0864,5.068,5.0678,5.0677,0,5.0115,5.0215,5.0299,5.0325,5.0386,5.0424,5.0451,5.0495,5.0532,5.0582,5.0606,5.0663,5.0694,5.0737,5.0751,5.0717,5.0846,5.0803,5.0857,5.0857,5.0885,5.0883,5.1034,5.0904,5.0903,5.0903,5.0903,0,5.0232,5.0304,5.0335,5.0386,5.0467,5.048,5.0559,5.0583,5.0622,5.0677,5.0672,5.0723,5.0738,5.0791,5.0802,5.088,5.0893,5.0904,5.0906,5.0905,5.0904,5.0925,5.0919,5.0907,5.0906,5.0906,5.0905,0,5.0333,5.0356,5.0447,5.0498,5.0512,5.0569,5.0612,5.066,5.0679,5.0749,5.0766,5.0795,5.0858,5.0876,5.095,5.0957,5.1049,5.1044,5.1035,5.1035,5.1089,5.1084,5.1259,5.1283,5.1136,5.1138,5.1139,0,5.0407,5.0463,5.052,5.0558,5.0587,5.0647,5.0685,5.07,5.0739,5.0797,5.0838,5.0901,5.0952,5.1052,5.1079,5.1136,5.1133,5.119,5.1141,5.1139,5.1134,5.1131,5.1137,5.12,5.1201,5.1202,5.1203,0,5.0535,5.0544,5.0601,5.0662,5.0709,5.0757,5.0803,5.0833,5.0854,5.0899,5.0964,5.1004,5.1081,5.1143,5.1201,5.1226,5.1219,5.1219,5.1235,5.1234,5.1227,5.1233,5.1061,5.1215,5.1214,5.1213,5.1212,5.1212,5.0625,5.0675,5.0724,5.0787,5.0824,5.0867,5.0916,5.0942,5.0997,5.1063,5.1068,5.1139,5.1183,5.126,5.1289,5.1343,5.1326,5.1349,5.1355,5.136,5.1365,5.1218,5.1354,5.1353,5.1353,5.1353,5.1353,0,5.0754,5.0786,5.0844,5.091,5.0959,5.095,5.1,5.1042,5.1105,5.1148,5.1199,5.1274,5.1334,5.1366,5.1426,5.1463,5.1461,5.1478,5.1476,5.1482,5.1377,5.1358,5.1479,5.1479,5.1479,5.1479,5.1479,5.1479,5.0827,5.0911,5.0926,5.1028,5.1058,5.1129,5.1159,5.1199,5.1233,5.1318,5.1369,5.139,5.1429,5.1491,5.1546,5.1553,5.1576,5.1595,5.1601,5.1502,5.1489,5.1477,5.1459,5.16,5.16,5.1702,5.1703,5.1704]}]]